Notices

What's New in latest Release from April 7th, 2021:

- Updated Glossary, including Speed of Maximum Gust, and Total Hourly Precipitation

- Updated national and regional climate services offices contacts and prices information

- Addition of station inventory lists for 1981-2010, 1971-2000, and 1961-1990 Normals.

If you haven't already, please take our survey and provide feedback about our website: https://eccc.sondage-survey.ca/f/LanguageSelection.aspx?s=442ca660-fcf1-47c0-95a9-59707d6fd709

Hourly Data Report for April 15, 2021

CARBERRY CS
MANITOBA
Current Station Operator: ECCC - MSC

49°54'20.900" N
99°21'26.800" W
383.50 m
5010547
71170
WZE

Download Data

Hourly Data (April 2021)
Hourly Data Report for April 15, 2021
TIME
LST
Temp Definition
°C
Dew Point Definition
°C
Rel Hum Definition
%
Precip. Amount Definition
mm

Wind Dir Definition
10's deg

Wind Spd Definition
km/h
Visibility Definition
km
Stn Press Definition
kPa
Hmdx Definition


Wind Chill Definition


Weather Definition


00:00 -2.3 -5.4 80 0.0 36 7   98.25   -5 LegendNANA
01:00 -2.3 -5.3 80 0.0 36 5   98.24   -4 LegendNANA
02:00 -2.2 -5.0 81 0.0 33 7   98.21   -5 LegendNANA
03:00 -2.2 -4.9 82 0.0 32 6   98.19   -5 LegendNANA
04:00 -2.0 -5.1 79 0.0 34 5   98.14   -4 LegendNANA
05:00 -2.0 -4.2 85 0.0 29 4   98.09   -3 LegendNANA
06:00 -1.9 -4.4 83 0.0 29 4   98.08   -3 LegendNANA
07:00 -1.5 -4.0 83 0.0 29 4   98.09   -3 LegendNANA
08:00 -1.1 -5.0 75 0.0 35 6   98.08   -3 LegendNANA
09:00 -0.6 -4.6 74 0.0 1 7   98.06   -3 LegendNANA
10:00 -0.1 -4.7 71 0.0 3 7   98.03   -3 LegendNANA
11:00 0.8 -5.0 65 0.0 35 7   98.02     LegendNANA
12:00 1.4 -4.8 63 0.0 2 4   98.01     LegendNANA
13:00 2.3 -3.9 64 0.0 36 6   97.97     LegendNANA
14:00 2.9 -3.3 63 0.0 36 4   97.93     LegendNANA
15:00 3.3 -3.3 62 0.0 1 5   97.89     LegendNANA
16:00 3.3 -3.4 62 0.0 1 5   97.87     LegendNANA
17:00 3.4 -2.8 64 0.0 2 5   97.87     LegendNANA
18:00 3.0 -2.9 65 0.0 7 6   97.86     LegendNANA
19:00 2.3 -2.1 73 0.0 5 4   97.87     LegendNANA
20:00 1.9 -2.4 74 0.0 5 5   97.90     LegendNANA
21:00 1.5 -2.9 72 0.0 5 3   97.90     LegendNANA
22:00 0.7 -1.6 85 0.0 34 3   97.90     LegendNANA
23:00 1.0 -2.3 79 0.0 35 3   97.89     LegendNANA

Notes on Data Quality.

Legend

  • E = Estimated
  • M = Missing
  • NA = Not Available*
  • [empty] = Indicates an unobserved value
Date modified: